Погода в Зилаире

Погода в Зилаире : погода сейчас, прогноз погоды и архив. Всё, что Вы хотите узнать о погоде в Зилаире!

Поиск расширенной информации на нашем сайте:

Другие новости

Новости СМИ2

Главная страница сайта

Новости сайта

03.07.2017

Напоминаем, что на нашем специализированном сайте Метеоцентр.Азия вы можете получить высокодетализированные автоматические прогнозы погоды по пунктам России, СНГ и мира в авиационном формате (включающие направление и скорость ветра, видимость, явления погоды, количество и форму облачности, нижнюю и верхнюю границу облачности).


Погода в Зилаире - сегодня

Время (UTC), дата Ветер
(°,м/с) 
Видим.   Явления Облачность Т
(°С)
Тd
(°С)
f(%) Тe
(°С)
Pmin
(гПа)
dP
(гПа)
Po
(мм)
O2
(г/м3)
Тmin Tmax R s Состояние
почвы
15 19.11.17 180 (Ю) 10 км    ясно 
-3.5 -4.9 90 -5  1031.4  -1.3  725  296    -0.4       
18 19.11.17 190 (Ю) 10 км    5/0 средняя 
[Ac trans]
-4 -5 93 -5  1031.6  0.1  725  297           
21 19.11.17 170 (Ю) 4000 м  дымка  5/0 средняя 
[Ac trans]
-3.8 -5 91 -3  1031  -0.5  724  296           
00 20.11.17 тихо ()   4000 м  дымка  4/0 средняя 
[Ac lent]
-5.3 -6.1 94 -5  1031  -0.4  724  298           
03 20.11.17 180 (Ю) 10 км    8/4 600 м средняя 
[Sc|Ac trans]
-4.3 -5.2 93 -4  1030.2  -0.5  724  297  -5.3      равномерный
сухой снег
100% 
06 20.11.17 200 (Ю) 10 км    10/10 600 м 
[Sc]
-1.3 -3.7 84 -1  1029.7  0.2  724  293           
09 20.11.17 180 (Ю) 10 км    10/10 600 м 
[Sc]
+0.8 -4 70 1028.4  -0.7  723  291           
12 20.11.17 180 (Ю) 20000 м    8/5 600 м средняя 
[Sc|Ac trans]
+1.2 -5.3 62 +1  1028.3  723  291           
15 20.11.17 150 (ЮВ) 10 км    5/0 средняя 
[Ac trans]
+0 -3.7 76 -1  1028.8  0.2  723  292    +1.5       
18 20.11.17 180 (Ю) 10 км    ясно 
-1.6 -6.6 69 -3  1028.5  -0.7  723  294           
21 20.11.17 200 (Ю) 10 км    ясно 
-2.6 -8.1 66 -2  1027.7  -1  722  294           
00 21.11.17 140 (ЮВ) 10 км    ясно 
-2.9 -7.1 73 -5  1026.6  -1.1  721  294           
03 21.11.17 150 (ЮВ) 10 км    10/0 средняя 
[Ac As]
-3.4 -6 82 -6  1025.6  -1  720  295  -3.9      равномерный
сухой снег
100% 
06 21.11.17 120 (ЮВ) 10 км    9/3 600 м средняя 
[Sc|Ac trans]
-3.3 -5.8 83 -5  1024.4  -1.1  720  294           
09 21.11.17 120 (ЮВ) 20000 м    8/5 600 м средняя 
[Cu Sc|Ac trans]
-2 -4.9 80 -3  1022.8  -1.2  719  292           
12 21.11.17 120 (ЮВ) 10 км    10/8 600 м средняя 
[Cu Sc|Ac lent]
-2.2 -4.6 84 -5  1021.5  -1.3  718  292           
15 21.11.17 120 (ЮВ) 10 км    8/8 600 м 
[Cu Sc]
-2.6 -4.8 85 -4  1020.9  -0.6  717  292    -1.9       
18 21.11.17 120 (ЮВ) 10 км    ясно 
-3.6 -5.3 88 -5  1019.7  -1.4  716  293           
21 21.11.17 130 (ЮВ) 10 км    ясно 
-3.9 -5.6 88 -5  1018.7  -1  716  293           
00 22.11.17 120 (ЮВ) 10 км    ясно 
-3.8 -5.8 86 -5  1017.7  -0.9  715  293           
03 22.11.17 130 (ЮВ) 10 км    5/0 средняя 
[Ac trans]
-2.9 -5.2 84 -5  1017.2  -0.3  715  292  -4.3      равномерный
сухой снег
100% 
06 22.11.17 130 (ЮВ) 20000 м    8/0 средняя 
[Ac und]
-0.7 -4.2 77 -2  1016.8  0.2  715  289           
09 22.11.17 140 (ЮВ) 20000 м    8/0 средняя 
[Ac und]
+2.2 -3.8 64 +1  1015.7  -0.4  714  286           
12 22.11.17 120 (ЮВ) 20000 м    9/0 средняя, верхняя 
[Ac trans|Cs]
+0.5 -3.4 75 1015.9  -0.2  714  288           
15 22.11.17 110 (В) 10 км    4/0 верхняя 
[Ci fib]
+0.3 -3.8 74 1015.9  714  288    +2.4       
Время (UTC), дата Ветер
(°,м/с) 
Видим.   Явления Облачность Т
(°С)
Тd
(°С)
f(%) Тe
(°С)
Pmin
(гПа)
dP
(гПа)
Po
(мм)
O2
(г/м3)
Тmin Tmax R s Состояние
почвы

Для получения пояснительной информации подведите курсор к названию столбца.

ПОГОДА в Зилаире - архив

Всё, что Вы хотите узнать о погоде в Зилаире - удобно и подробно!

Выберите нужную дату (начиная с 1 января 2015* года) и нажмите кнопку "Найти".
Будут отображены архивные сводки погоды по пункту Зилаир, начиная с указанной даты.


Отображать данные в формате CSV (для использования в таблицах Excel)


Внимание! Наш архив погоды предназначен исключительно для личного некоммерческого использования в познавательных целях. Если Вам необходимы официальные справки о состоянии погоды (для производственных, юридических, коммерческих и т.п. целей), обращайтесь в органы Росгидромета.

*Примечание: данная дата относится к архиву по метеостанциям СССР (Россия, СНГ, Балтия).
Архив по метеостанциям Зарубежной Европы и Азии (кроме Китая) хранится 10 дней, по другим регионам земного шара (Китай, Африка, Америка, Австралия, Океания) - 1 день.

Зилаир - район местоположения метеостанции


Название, широта, долгота, высота метеостанции:
Зилаир 52.2°ш. 57.4°д. 521 м над ур. моря [Российская Федерация]

Дополнительная информация

В oтличие oт бoльшинства пoгoдных сайтoв мы публикуем пoдрoбную метеoинфoрмацию в детальнoм прoфессиoнальнoм фoрмате.

Характеристики температуры и влажнoсти вoздуха измеряются на высoте 2 м в тени вдали oт зданий и деревьев.
Скoрoсть ветра измеряется на высoте 10 м (на урoвне рoста челoвека скoрoсть ветра ниже в 1.5-2 раза). Если метеoстанция нахoдится в гoрoде или в лесу, тo скoрoсть ветра занижена на 2-4 м/с пo сравнению с oткрытым местoм. Скoрoсть ветра над акватoриями крупных рек и oзёр, а также на вершинах хoлмoв на 2-5 м/с выше, чем в oбычных услoвиях.
Атмoсфернoе давление в разных тoчках местнoсти мoжет значительнo oтличаться oт давления на метеoстанции, в зависимoсти oт услoвий рельефа (при пoдъёме на 10 м давление пoнижается примернo на 1 мм рт.ст.).